Regional Weather Roundup
Issued by NWS Green Bay, WI

Home | Current Version | Previous Version | Text Only | Print | Product List | Glossary On
Versions: 1 2 3 4 5 6 7 8 9 10 11 12 13 14 15 16 17 18 19 20 21 22 23 24 25 26 27 28 29 30 31 32 33 34 35 36 37 38 39 40 41 42 43 44 45 46 47 48 49 50
000
ASUS43 KGRB 250211
RWRGRB

NORTH-CENTRAL AND NORTHEAST WISCONSIN REGIONAL WEATHER ROUNDUP
NATIONAL WEATHER SERVICE GREEN BAY WI
800 PM CST TUE JAN 24 2017

WIZ005-009-010>012-018-019-250300-
NORTH CENTRAL WISCONSIN

CITY           SKY/WX    TMP DP  RH WIND       PRES   REMARKS
IRONWOOD       CLOUDY    31  28  89 CALM      29.83S
MANITOWISH WTR CLOUDY    31  31 100 NE3       29.79S
ARBOR VITAE    LGT SNOW  34  33  96 CALM      29.78F
EAGLE RIVER    LGT SNOW  32  32 100 CALM      29.78F
LAND O LAKES   CLOUDY    33  33 100 CALM      29.81S
RHINELANDER    CLOUDY    34  31  88 E9        29.78F
PHILLIPS       CLOUDY    32  31  96 E3        29.78F
ANTIGO         CLOUDY    33  32  96 NE8       29.78S
TOMAHAWK       CLOUDY    33  30  88 E5        29.78F
MERRILL        CLOUDY    34  31  90 NE7         N/A
$$

WIZ013-073-250300-
NORTHEAST WISCONSIN

CITY           SKY/WX    TMP DP  RH WIND       PRES   REMARKS
IRON MOUNTAIN  CLOUDY    34  31  88 N3        29.79S
MARINETTE      NOT AVBL
OCONTO         CLOUDY    33  32  96 CALM      29.80F
$$

WIZ017-030-035>037-045-250300-
CENTRAL WISCONSIN

CITY           SKY/WX    TMP DP  RH WIND       PRES   REMARKS
MEDFORD        CLOUDY    32  29  88 NE3       29.76S
WAUSAU         CLOUDY    35  30  82 NE5       29.76F
MOSINEE        CLOUDY    34  32  93 E5        29.78F
MARSHFIELD     CLOUDY    33  28  81 E5        29.76F
WISC RAPIDS    CLOUDY    34  31  88 E6        29.79S
STEVENS POINT  CLOUDY    32  30  92 E3        29.78F
WAUPACA        CLOUDY    37  32  83 CALM      29.80S
SHAWANO        CLOUDY    37  33  85 CALM      29.79F
CLINTONVILLE   CLOUDY    34  32  93 CALM      29.80S
WAUTOMA        CLOUDY    34  31  88 E7        29.80R
$$

WIZ038-039-048-051-250300-
FOX VALLEY

CITY           SKY/WX    TMP DP  RH WIND       PRES   REMARKS
NWS GREEN BAY  CLOUDY    38  35  89 N5        29.80F
APPLETON       CLOUDY    36  34  93 NE7       29.78S
OSHKOSH        CLOUDY    35  31  85 CALM      29.79S
FOND DU LAC    CLOUDY    36  31  82 E6        29.79S
$$

WIZ022-050-052-250300-
EAST CENTRAL WISCONSIN

CITY           SKY/WX    TMP DP  RH WIND       PRES   REMARKS
EPHRAIM        CLOUDY    35  35 100 N3        29.79F
WASHINGTON ISL CLOUDY    33  33  96 N3        29.80F
STURGEON BAY   CLOUDY    35  34  96 CALM      29.81F
MANITOWOC      CLOUDY    37  34  89 MISG      29.80F
SHEBOYGAN      CLOUDY    35  32  88 CALM      29.80S
$$

LMZ563-521-522-541>543-250300-
LAKESHORE

STATION/POSITION TIME  TEMP    WIND        PRES    VSBY  WAVE
                       AIR SEA DIR/SP/G                  HT/PER
                 (UTC) (F)     (DEG/KT/KT) (MB)    (MI)  (FT/S)
SHEBOYGAN LKSHOR 0200   37      80/  2/  3 1009.6R
KEWAUNEE LKSHORE 0148   36      CALM  /  1 1008.8F
NORTHPORT PIER   0140   35     310/  3/  5 1009.5F
SISTER BAY LKSHO 0135   35        CALM       N/A
CHAMBERS ISLAND  0140   34        CALM     1009.5S
MENOMINEE LKSHOR 0148   35     310/  2/  3 1008.8F
$$



USA.gov is the U.S. government's official web portal to all federal, state and local government web resources and services.